Regional Weather Roundup
Issued by NWS

Home | Current Version | Previous Version | Text Only | Print | Product List | Glossary On
Versions: 1 2 3 4 5 6 7 8 9 10 11 12 13 14 15 16 17 18 19 20 21 22 23 24 25 26 27 28 29 30 31 32 33 34 35 36 37 38 39 40 41 42 43 44 45 46 47 48 49 50
000
ASCA44 KEWX 190320
RWRMX

LATIN AMERICA AND CARIBBEAN REGIONAL WEATHER ROUNDUP
NATIONAL WEATHER SERVICE AUSTIN/SAN ANTONIO TX
900 PM CST SAT NOV 18 2017

NOTE: "FAIR" INDICATED FEW OR NO CLOUDS BELOW 12,000 FEET WITH NO
SIGNIFICANT WEATHER AND/OR OBSTRUCTIONS TO VISIBILITY.

BAJA CALIFORNIA

CITY           SKY/WX    TMP DP  RH WIND       PRES   REMARKS
LA PAZ         PTCLDY    77  57  50 CALM      29.93R
MEXICALI       CLEAR     63  12  14 NW7       30.10S
S.J. DEL CABO  CLEAR     75  52  43 NW3       29.92R
TIJUANA        PTCLDY    61  54  77 CALM      30.09R

NORTHWESTERN MEXICO

CITY           SKY/WX    TMP DP  RH WIND       PRES   REMARKS
CULIACAN       CLEAR     75  64  69 CALM      29.85R
DURANGO        CLEAR     57  27  30 NW3       30.23R
GUAYMAS          N/A    N/A N/A N/A MISG        N/A
HERMOSILLO     PTCLDY    79  50  36 NW5       29.94R
CD. JUAREZ     PTCLDY    54  27  35 E13       30.30R
LOS MOCHIS     PTCLDY    72  61  68 W8        29.88R

NORTHEASTERN MEXICO

CITY           SKY/WX    TMP DP  RH WIND       PRES   REMARKS
CHIHUAHUA      MOCLDY    59  32  36 N6        30.21R
MONCLOVA         N/A    N/A N/A N/A MISG        N/A
MONTERREY      CLEAR     75  46  35 NW18G35   30.12R
REYNOSA          N/A    N/A N/A N/A MISG        N/A
SALTILLO         N/A    N/A N/A N/A MISG        N/A
TORREON        CLEAR     73  32  21 NW2       30.08R
CD. VICTORIA     N/A    N/A N/A N/A MISG        N/A

WESTERN MEXICO

CITY           SKY/WX    TMP DP  RH WIND       PRES   REMARKS
AGUASCALIENTES CLEAR     63  27  25 NE8       30.19R
COLIMA           N/A    N/A N/A N/A MISG        N/A
DEL BAJIO      CLEAR     72  30  21 CALM      30.24R
GUADALAJARA    CLEAR     61  39  44 NW3       30.12R
MAZATLAN       CLEAR     72  61  68 CALM      29.86R
P. VALLARTA    CLEAR     79  77  94 CALM      29.86R
URUAPAN          N/A    N/A N/A N/A MISG        N/A

CENTRAL MEXICO

CITY           SKY/WX    TMP DP  RH WIND       PRES   REMARKS
CUERNAVACA       N/A    N/A N/A N/A MISG        N/A
MEXICO CITY    CLEAR     64  18  16 N6        30.32R
MORELIA        CLEAR     54  37  54 CALM      30.19R
POZA RICA        N/A    N/A N/A N/A MISG        N/A
QUERETARO      CLEAR     59  30  33 E5        30.29R
TAMPICO        CLEAR     77  72  83 MISG      29.96R
TOLUCA         CLEAR     54  12  19 E3        30.36R

SOUTHERN MEXICO

CITY           SKY/WX    TMP DP  RH WIND       PRES   REMARKS
ACAPULCO       PTCLDY    82  75  78 W6        29.85R
B. DE HUATULCO MOCLDY   N/A N/A N/A CALM      29.92
P. ESCONDIDO     N/A    N/A N/A N/A MISG        N/A
VERACRUZ       CLEAR     75  72  88 NE3       29.92R
ZIHUATANEJO    MOCLDY    82  75  78 N3        29.86R

YUCATAN PENINSULA

CITY           SKY/WX    TMP DP  RH WIND       PRES   REMARKS
CAMPECHE       CLEAR     72  68  88 CALM      29.92R
CANCUN         PTCLDY    75  72  88 CALM      29.96R
CHETUMAL       MOCLDY    75  68  78 CALM      29.94R
CD. DEL CARMEN CLEAR    N/A N/A N/A NE7       29.92R
COZUMEL        MOCLDY    75  72  88 E6        29.94R
MERIDA         CLEAR     75  70  83 NE9       29.96R
MINATITLAN       N/A    N/A N/A N/A MISG        N/A
TAPACHULA      PTCLDY    77  73  88 CALM      29.87
TUX. GUTIERREZ CLEAR     72  66  83 NW3       29.95R
VILLAHERMOSA   CLEAR     72  72 100 E3        29.92R

CENTRAL AMERICA

CITY           SKY/WX    TMP DP  RH WIND       PRES   REMARKS
MANAGUA          N/A     73  70  88 E5        29.86R

CARIBBEAN

CITY           SKY/WX    TMP DP  RH WIND       PRES   REMARKS
ARUBA          TSTM      79  75  89 NE7       29.80
CURACAO        PTCLDY    81  77  89 SE3       29.83R
KINGSTON       PTCLDY    82  73  74 NW5       29.83S
NASSAU         PTCLDY    77  72  83 NE6       29.96S
SAN JUAN       PTCLDY    79  77  94 CALM      29.82F
SANTO DOMINGO  MOCLDY    75  73  94 N5        29.83S
ST. THOMAS       N/A    N/A N/A N/A MISG      29.86

$$





USA.gov is the U.S. government's official web portal to all federal, state and local government web resources and services.